Falfurrias, TX

7:29 PM CST on November 22, 2019 (GMT -0600)
Falfurrias

Weather History for KBKS - May, 2019

Change the Weather History Date:

Monday, May 20, 2019

  Actual Average (KNQI) Record (KNQI)
Temperature  
Mean Temperature 88 °F -  
Max Temperature 97 °F 87 °F 98 °F (2011)
Min Temperature 79 °F 69 °F 55 °F (2002)
Cooling Degree Days 22    
Growing Degree Days 38 (Base 50)    
Moisture  
Dew Point 73 °F    
Average Humidity 67    
Maximum Humidity 89    
Minimum Humidity 38    
Precipitation  
Precipitation 0.00 in - - ()
Sea Level Pressure  
Sea Level Pressure 29.72 in    
Wind  
Wind Speed 12 mph (SE)    
Max Wind Speed 25 mph    
Max Gust Speed 33 mph    
Visibility 8 miles    
Events      
Averages and records for this station are not official NWS values.
T = Trace of Precipitation, MM = Missing Value Source: NWS Daily Summary

Daily Weather History Graph

Daily Weather History Graph

Search for Another Location

Airport or City:

Astronomy

May. 20, 2019 Rise Set
Actual Time 6:41 AM CDT 8:16 PM CDT
Civil Twilight 6:16 AM CDT 8:42 PM CDT
Nautical Twilight 5:45 AM CDT 9:12 PM CDT
Astronomical Twilight 5:13 AM CDT 9:44 PM CDT
Moon 10:15 PM CDT (5/20) 8:12 AM CDT (5/20)
Length of Visible Light 14h 25m
Length of Day
13h 34m
Waning Gibbous, 96% of the Moon is Illuminated
May 20
Waning Gibbous
May 26
Last Quarter
Jun 3
New
Jun 10
First Quarter
Jun 17
Full

Hourly Weather History & Observations

Time (CDT) Temp. Heat Index Dew Point Humidity Pressure Visibility Wind Dir Wind Speed Gust Speed Precip Events Conditions
12:15 AM 81.7 °F 89.2 °F 76.6 °F 85% 29.83 in 7.0 mi ESE 8.1 mph - N/A   Overcast
12:35 AM 81.7 °F 89.5 °F 77.0 °F 86% 29.82 in 5.0 mi SE 8.1 mph - N/A   Overcast
12:55 AM 81.5 °F 88.7 °F 76.6 °F 85% 29.82 in 7.0 mi ESE 8.1 mph - N/A   Overcast
1:15 AM 81.5 °F 89.0 °F 77.0 °F 86% 29.82 in 5.0 mi ESE 8.1 mph - N/A   Overcast
1:35 AM 81.1 °F 88.2 °F 77.0 °F 87% 29.81 in 5.0 mi ESE 8.1 mph - N/A   Overcast
1:55 AM 81.0 °F 87.9 °F 77.0 °F 88% 29.81 in 5.0 mi SE 6.9 mph - N/A   Overcast
2:15 AM 81.1 °F 88.2 °F 77.0 °F 87% 29.80 in 5.0 mi ESE 6.9 mph - N/A   Overcast
2:35 AM 81.0 °F 87.9 °F 77.0 °F 88% 29.80 in 5.0 mi ESE 8.1 mph - N/A   Overcast
2:55 AM 81.0 °F 87.9 °F 77.0 °F 88% 29.79 in 5.0 mi ESE 6.9 mph - N/A   Overcast
3:15 AM 81.0 °F 87.7 °F 76.8 °F 87% 29.79 in 5.0 mi SE 6.9 mph - N/A   Overcast
3:35 AM 81.3 °F 88.5 °F 76.6 °F 86% 29.79 in 5.0 mi SE 9.2 mph - N/A   Overcast
3:55 AM 81.1 °F 88.0 °F 76.5 °F 86% 29.78 in 5.0 mi SE 8.1 mph - N/A   Overcast
4:15 AM 80.8 °F 87.2 °F 76.5 °F 87% 29.79 in 5.0 mi SE 6.9 mph - N/A   Overcast
4:35 AM 80.8 °F 87.1 °F 76.3 °F 86% 29.78 in 5.0 mi ESE 8.1 mph - N/A   Overcast
4:55 AM 80.6 °F 86.6 °F 76.1 °F 86% 29.78 in 5.0 mi SE 6.9 mph - N/A   Scattered Clouds
5:15 AM 79.9 °F - 76.1 °F 88% 29.78 in 5.0 mi SE 6.9 mph - N/A   Clear
5:35 AM 79.7 °F - 76.1 °F 89% 29.78 in 4.0 mi ESE 8.1 mph - N/A   Clear
5:55 AM 79.7 °F - 76.1 °F 89% 29.79 in 4.0 mi ESE 6.9 mph - N/A   Mostly Cloudy
6:15 AM 79.7 °F - 76.1 °F 89% 29.79 in 5.0 mi SE 9.2 mph - N/A   Overcast
6:35 AM 80.1 °F 85.2 °F 75.4 °F 86% 29.79 in 5.0 mi SE 9.2 mph - N/A   Overcast
6:55 AM 80.1 °F 85.2 °F 75.4 °F 86% 29.79 in 5.0 mi SE 6.9 mph - N/A   Overcast
7:15 AM 80.1 °F 85.1 °F 75.2 °F 85% 29.79 in 5.0 mi ESE 8.1 mph - N/A   Mostly Cloudy
7:35 AM 80.1 °F 85.2 °F 75.4 °F 86% 29.79 in 4.0 mi ESE 10.4 mph - N/A   Mostly Cloudy
7:55 AM 80.2 °F 85.5 °F 75.2 °F 85% 29.79 in 5.0 mi ESE 11.5 mph 19.6 mph N/A   Scattered Clouds
8:15 AM 81.1 °F 87.2 °F 75.2 °F 82% 29.80 in 5.0 mi SE 13.8 mph 18.4 mph N/A   Scattered Clouds
8:35 AM 82.0 °F 88.9 °F 75.2 °F 80% 29.80 in 5.0 mi SE 16.1 mph 20.7 mph N/A   Mostly Cloudy
8:55 AM 82.8 °F 89.8 °F 75.0 °F 77% 29.80 in 7.0 mi SE 15.0 mph 23.0 mph N/A   Mostly Cloudy
9:15 AM 83.5 °F 90.9 °F 74.7 °F 75% 29.80 in 7.0 mi SE 15.0 mph 23.0 mph N/A   Mostly Cloudy
9:35 AM 84.7 °F 92.8 °F 74.7 °F 72% 29.80 in 7.0 mi SSE 15.0 mph 26.5 mph N/A   Mostly Cloudy
9:55 AM 85.5 °F 93.0 °F 73.9 °F 68% 29.80 in 7.0 mi SSE 15.0 mph 24.2 mph N/A   Scattered Clouds
10:15 AM 87.1 °F 94.9 °F 73.6 °F 64% 29.80 in 7.0 mi SSE 16.1 mph 23.0 mph N/A   Scattered Clouds
10:35 AM 88.2 °F 95.5 °F 72.7 °F 60% 29.80 in 10.0 mi SSE 19.6 mph 25.3 mph N/A   Clear
10:55 AM 88.3 °F 95.0 °F 71.8 °F 58% 29.80 in 10.0 mi SSE 23.0 mph 26.5 mph N/A   Scattered Clouds
11:15 AM 90.1 °F 97.8 °F 72.5 °F 56% 29.79 in 10.0 mi SE 19.6 mph 26.5 mph N/A   Scattered Clouds
11:35 AM 90.5 °F 97.5 °F 71.8 °F 54% 29.79 in 10.0 mi SSE 18.4 mph 27.6 mph N/A   Scattered Clouds
11:55 AM 91.0 °F 98.2 °F 71.6 °F 53% 29.78 in 10.0 mi SSE 16.1 mph - N/A   Clear
12:15 PM 92.5 °F 99.0 °F 71.1 °F 49% 29.77 in 10.0 mi SSE 21.9 mph - N/A   Clear
12:35 PM 93.0 °F 99.5 °F 70.7 °F 48% 29.76 in 10.0 mi SE 20.7 mph 28.8 mph N/A   Clear
12:55 PM 94.1 °F 100.0 °F 69.8 °F 45% 29.75 in 10.0 mi SSE 23.0 mph 29.9 mph N/A   Clear
1:15 PM 94.8 °F 100.9 °F 69.6 °F 44% 29.73 in 10.0 mi SSE 24.2 mph 31.1 mph N/A   Clear
1:35 PM 95.2 °F 100.5 °F 68.5 °F 42% 29.72 in 10.0 mi SSE 21.9 mph 31.1 mph N/A   Clear
1:55 PM 95.9 °F 100.7 °F 68.0 °F 40% 29.71 in 10.0 mi SSE 20.7 mph 28.8 mph N/A   Clear
2:15 PM 96.1 °F 102.3 °F 69.3 °F 42% 29.70 in 10.0 mi SE 20.7 mph 26.5 mph N/A   Clear
2:35 PM 96.3 °F 101.4 °F 68.5 °F 40% 29.69 in 10.0 mi SE 23.0 mph 28.8 mph N/A   Clear
2:55 PM 96.1 °F 101.0 °F 68.2 °F 40% 29.69 in 10.0 mi SE 19.6 mph 28.8 mph N/A   Clear
3:15 PM 96.6 °F 101.5 °F 68.0 °F 39% 29.67 in 10.0 mi SE 19.6 mph 29.9 mph N/A   Clear
3:35 PM 96.1 °F 99.9 °F 66.6 °F 38% 29.67 in 10.0 mi SSE 19.6 mph 28.8 mph N/A   Clear
3:55 PM 96.6 °F 100.9 °F 67.5 °F 38% 29.66 in 10.0 mi SE 17.3 mph 27.6 mph N/A   Clear
4:15 PM 96.4 °F 100.6 °F 67.1 °F 38% 29.65 in 10.0 mi SE 24.2 mph 29.9 mph N/A   Clear
4:35 PM 96.3 °F 100.2 °F 66.9 °F 38% 29.65 in 10.0 mi SE 20.7 mph 28.8 mph N/A   Clear
4:55 PM 96.1 °F 99.9 °F 66.9 °F 38% 29.64 in 10.0 mi SSE 23.0 mph 28.8 mph N/A   Clear
5:15 PM 95.4 °F 99.7 °F 67.5 °F 40% 29.63 in 10.0 mi SE 23.0 mph 29.9 mph N/A   Clear
5:35 PM 95.4 °F 99.1 °F 66.7 °F 39% 29.62 in 10.0 mi SSE 25.3 mph 33.4 mph N/A   Clear
5:55 PM 94.3 °F 98.2 °F 66.9 °F 41% 29.61 in 10.0 mi SE 18.4 mph 28.8 mph N/A   Clear
6:15 PM 93.6 °F 97.4 °F 67.5 °F 42% 29.62 in 10.0 mi SE 17.3 mph 28.8 mph N/A   Clear
6:35 PM 92.7 °F 97.2 °F 68.5 °F 45% 29.61 in 10.0 mi SE 15.0 mph 27.6 mph N/A   Clear
6:55 PM 90.9 °F 99.4 °F 73.4 °F 56% 29.61 in 10.0 mi ESE 13.8 mph 21.9 mph N/A   Clear
7:15 PM 89.2 °F 97.4 °F 73.4 °F 59% 29.61 in 10.0 mi ESE 13.8 mph 21.9 mph N/A   Clear
7:35 PM 87.8 °F 96.1 °F 73.6 °F 63% 29.60 in 10.0 mi SE 19.6 mph - N/A   Clear
7:55 PM 86.7 °F 94.1 °F 73.4 °F 64% 29.61 in 10.0 mi SE 13.8 mph 18.4 mph N/A   Clear
8:15 PM 85.5 °F 92.6 °F 73.2 °F 67% 29.61 in 10.0 mi SE 13.8 mph 20.7 mph N/A   Clear
8:35 PM 84.4 °F 91.0 °F 73.4 °F 69% 29.62 in 10.0 mi SE 12.7 mph 17.3 mph N/A   Clear
8:55 PM 83.7 °F 90.1 °F 73.4 °F 71% 29.61 in 10.0 mi SE 12.7 mph - N/A   Clear
9:15 PM 82.8 °F 89.0 °F 73.8 °F 74% 29.63 in 10.0 mi SE 12.7 mph 16.1 mph N/A   Clear
9:35 PM 82.2 °F 88.3 °F 74.1 °F 76% 29.63 in 10.0 mi SE 11.5 mph 17.3 mph N/A   Clear
9:55 PM 81.7 °F 87.6 °F 74.3 °F 78% 29.62 in 10.0 mi SE 12.7 mph 19.6 mph N/A   Clear
10:15 PM 81.5 °F 87.4 °F 74.5 °F 79% 29.64 in 10.0 mi SE 10.4 mph - N/A   Mostly Cloudy
10:35 PM 81.5 °F 87.6 °F 74.7 °F 80% 29.64 in 7.0 mi SE 9.2 mph 17.3 mph N/A   Overcast
10:55 PM 81.5 °F 87.4 °F 74.5 °F 79% 29.64 in 7.0 mi SSE 13.8 mph 18.4 mph N/A   Mostly Cloudy
11:15 PM 81.9 °F 88.0 °F 74.5 °F 78% 29.64 in 7.0 mi SSE 12.7 mph 19.6 mph N/A   Mostly Cloudy
11:35 PM 81.5 °F 87.4 °F 74.3 °F 79% 29.63 in 7.0 mi SSE 11.5 mph 19.6 mph N/A   Scattered Clouds
11:55 PM 81.5 °F 87.4 °F 74.3 °F 79% 29.63 in 7.0 mi SE 17.3 mph 23.0 mph N/A   Scattered Clouds